New Bedford, MA

12:20 AM EDT on March 29, 2017 (GMT -0400)
New Bedford Regional

Weather History for KEWB - August, 2012

Change the Weather History Date:

Monday, August 13, 2012

  Actual Average Record
Temperature  
Mean Temperature 74 °F -  
Max Temperature 86 °F 80 °F 94 °F (1988)
Min Temperature 64 °F 64 °F 45 °F (2006)
Cooling Degree Days 9    
Growing Degree Days 24 (Base 50)    
Moisture  
Dew Point 67 °F    
Average Humidity 84    
Maximum Humidity 100    
Minimum Humidity 49    
Precipitation  
Precipitation 0.01 in - - ()
Sea Level Pressure  
Sea Level Pressure 29.92 in    
Wind  
Wind Speed 4 mph (SW)    
Max Wind Speed 14 mph    
Max Gust Speed -    
Visibility 5 miles    
Events Fog    
Averages and records for this station are not official NWS values.
T = Trace of Precipitation, MM = Missing Value Source: NWS Daily Summary

Daily Weather History Graph

Daily Weather History Graph

Search for Another Location

Airport or City:

Trip Planner

Search our weather history database for the weather conditions in past years. The results will help you decide how hot, cold, wet, or windy it might be!

Date:

Astronomy

Aug. 13, 2012 Rise Set
Actual Time 5:50 AM EDT 7:45 PM EDT
Civil Twilight 5:20 AM EDT 8:15 PM EDT
Nautical Twilight 4:43 AM EDT 8:52 PM EDT
Astronomical Twilight 4:04 AM EDT 9:31 PM EDT
Moon 1:49 AM EDT (8/13) 4:56 PM EDT (8/13)
Length of Visible Light 14h 55m
Length of Day
13h 55m
Waning Crescent, 16% of the Moon is Illuminated
Aug 13
Waning Crescent
Aug 17
New
Aug 24
First Quarter
Aug 31
Full
Sep 8
Last Quarter

Hourly Weather History & Observations

Time (EDT) Temp. Heat Index Dew Point Humidity Pressure Visibility Wind Dir Wind Speed Gust Speed Precip Events Conditions
12:53 AM 71.1 °F - 69.1 °F 93% 29.93 in 2.5 mi SW 4.6 mph - N/A   Partly Cloudy
1:03 AM 71.6 °F - 69.8 °F 94% 29.92 in 3.0 mi SW 4.6 mph - N/A   Mostly Cloudy
1:46 AM 69.8 °F - 69.8 °F 100% 29.92 in 2.0 mi SSW 3.5 mph - N/A   Partly Cloudy
1:53 AM 70.0 °F - 69.1 °F 97% 29.92 in 2.0 mi SW 3.5 mph - N/A   Partly Cloudy
2:30 AM 71.6 °F - 69.8 °F 94% 29.91 in 3.0 mi WSW 5.8 mph - N/A   Clear
2:40 AM 71.6 °F - 69.8 °F 94% 29.91 in 2.5 mi WSW 5.8 mph - N/A   Scattered Clouds
2:51 AM 71.6 °F - 69.8 °F 94% 29.91 in 2.0 mi SW 3.5 mph - N/A   Mostly Cloudy
2:53 AM 71.1 °F - 70.0 °F 96% 29.91 in 2.0 mi WSW 3.5 mph - N/A   Mostly Cloudy
3:02 AM 71.6 °F - 69.8 °F 94% 29.91 in 1.8 mi WSW 4.6 mph - N/A   Overcast
3:20 AM 71.6 °F - 69.8 °F 94% 29.91 in 2.0 mi WSW 3.5 mph - 0.01 in   Mostly Cloudy
3:41 AM 69.8 °F - 69.8 °F 100% 29.91 in 2.5 mi WSW 3.5 mph - 0.01 in   Scattered Clouds
3:53 AM 70.0 °F - 69.1 °F 97% 29.91 in 2.5 mi WSW 3.5 mph - 0.01 in   Partly Cloudy
4:02 AM 69.8 °F - 68.0 °F 94% 29.91 in 2.5 mi WSW 4.6 mph - N/A   Clear
4:17 AM 69.8 °F - 68.0 °F 94% 29.91 in 3.0 mi WSW 4.6 mph - N/A   Clear
4:53 AM 66.9 °F - 66.0 °F 97% 29.91 in 1.2 mi SW 3.5 mph - N/A   Clear
5:02 AM 66.2 °F - 64.4 °F 94% 29.91 in 0.5 mi SSW 3.5 mph - N/A Fog Fog
5:09 AM 66.2 °F - 64.4 °F 94% 29.91 in 0.2 mi SSW 3.5 mph - N/A Fog Fog
5:53 AM 64.9 °F - 64.0 °F 97% 29.92 in 0.2 mi SSW 3.5 mph - N/A Fog Fog
6:13 AM 64.4 °F - 64.4 °F 100% 29.93 in 0.2 mi Calm Calm - N/A Fog Fog
6:21 AM 64.4 °F - 64.4 °F 100% 29.93 in 0.2 mi Calm Calm - N/A Fog Fog
6:33 AM 66.2 °F - 66.2 °F 100% 29.94 in 3.0 mi Calm Calm - N/A   Clear
6:53 AM 66.9 °F - 66.0 °F 97% 29.94 in 3.0 mi SSW 3.5 mph - N/A   Clear
7:53 AM 70.0 °F - 68.0 °F 93% 29.95 in 9.0 mi WSW 6.9 mph - N/A   Clear
8:53 AM 75.9 °F - 66.9 °F 74% 29.95 in 10.0 mi West 5.8 mph - N/A   Clear
9:53 AM 79.0 °F - 64.0 °F 60% 29.94 in 10.0 mi Variable 3.5 mph - N/A   Clear
10:53 AM 81.0 °F 81.9 °F 62.1 °F 52% 29.94 in 10.0 mi West 4.6 mph - N/A   Clear
11:53 AM 82.9 °F 83.7 °F 62.1 °F 49% 29.92 in 10.0 mi WSW 6.9 mph - N/A   Partly Cloudy
12:53 PM 84.0 °F 85.4 °F 64.0 °F 51% 29.91 in 10.0 mi West 8.1 mph - N/A   Partly Cloudy
1:53 PM 84.9 °F 86.1 °F 64.0 °F 49% 29.91 in 10.0 mi Variable 4.6 mph - N/A   Partly Cloudy
2:53 PM 84.0 °F 84.9 °F 63.0 °F 49% 29.90 in 10.0 mi WNW 5.8 mph - N/A   Mostly Cloudy
3:53 PM 82.0 °F 84.1 °F 66.0 °F 58% 29.90 in 10.0 mi SSW 13.8 mph - N/A   Mostly Cloudy
4:53 PM 81.0 °F 83.0 °F 66.0 °F 60% 29.91 in 10.0 mi SW 11.5 mph - N/A   Mostly Cloudy
5:53 PM 79.0 °F - 64.9 °F 62% 29.91 in 10.0 mi SW 10.4 mph - N/A   Clear
6:53 PM 77.0 °F - 66.0 °F 69% 29.91 in 10.0 mi SW 6.9 mph - N/A   Clear
7:53 PM 73.0 °F - 66.9 °F 81% 29.92 in 10.0 mi SSW 3.5 mph - N/A   Clear
8:53 PM 73.0 °F - 66.9 °F 81% 29.93 in 10.0 mi SW 4.6 mph - N/A   Clear
9:53 PM 71.1 °F - 64.9 °F 81% 29.93 in 10.0 mi WSW 4.6 mph - N/A   Clear
10:53 PM 66.9 °F - 64.0 °F 90% 29.94 in 10.0 mi SSW 3.5 mph - N/A   Clear
11:53 PM 66.9 °F - 64.0 °F 90% 29.94 in 10.0 mi Calm Calm - N/A   Clear